[[{"header":{"parameterUnit":"m.s-1","parameterCategory":1,"la1":30.2991,"la2":30.254,"lo1":-89.0895,"lo2":-89.0444,"dy":0.0017,"dx":0.0017,"nx":28,"ny":28,"refTime":"2025-09-02T21:00:00:Z","depth":0,"parameterNumber":2,"parameterNumberName":"U-component_of_WINDS"},"data":[0,0,0,0,0,0,0,0,0,0,0,0,0,0,0,0,0,0,0,0,0,0,0,0,0,0,0,0,0,0,0,0,0,0,0,0,0,0,0,0,0,0,0,0,0,0,0,0,0,0,0,0,0,0,0,0,0,0,-3.5305,-3.5305,0,-3.5265,-3.5265,-3.5264,-3.5129,-3.5126,-3.5123,-3.512,-3.5082,-3.5084,-3.5086,0,0,0,0,0,0,0,0,0,0,0,0,0,-3.5268,-3.527,-3.5305,-3.5305,-3.5304,-3.5265,-3.5265,-3.5264,-3.513,-3.5126,-3.5122,-3.5119,-3.5082,-3.5084,-3.5086,0,0,0,0,0,0,0,0,0,0,0,0,0,-3.5262,-3.527,-3.5305,-3.5232,-3.5225,-3.5265,-3.5265,-3.5264,-3.513,-3.5126,-3.5121,-3.5117,-3.5081,-3.5084,-3.5086,-3.5195,0,0,-3.5095,-3.5096,0,0,0,0,0,0,0,0,-3.5263,-3.5264,-3.5243,-3.5237,-3.523,-3.5197,-3.5237,-3.5241,-3.5132,-3.5167,-3.512,-3.5115,-3.5124,-3.5123,-3.5126,-3.5193,-3.5191,-3.5095,-3.5097,-3.5098,-3.5099,0,0,0,0,0,0,0,-3.5263,-3.5265,-3.5289,-3.5243,-3.5235,-3.5203,-3.5197,-3.5238,-3.5172,-3.5163,-3.5153,-3.515,-3.512,-3.5124,-3.5124,-3.5191,-3.5095,-3.5097,-3.5099,-3.51,-3.5346,-3.5351,0,0,0,0,0,0,-3.5274,-3.5266,-3.529,-3.5288,-3.5235,-3.5207,-3.52,-3.5212,-3.5171,-3.516,-3.5154,-3.5144,-3.5121,-3.5121,-3.5122,-3.5247,-3.5098,-3.51,-3.5102,-3.5341,-3.5347,-3.5352,0,0,0,0,0,0,-3.5273,-3.5277,-3.5292,-3.5274,-3.5274,-3.5212,-3.5227,-3.5214,-3.5217,-3.5164,-3.5152,-3.517,-3.5118,-3.5118,-3.5178,-3.5244,-3.5102,-3.5104,-3.5335,-3.5343,-3.535,-3.5498,0,0,0,0,0,0,-3.5273,-3.5278,-3.5317,-3.5276,-3.5275,-3.5348,-3.5231,-3.5217,-3.5222,-3.5209,-3.5176,-3.5166,-3.5114,-3.5174,-3.5181,-3.5245,-3.5106,-3.5329,-3.5339,-3.5347,-3.5487,-3.551,-3.5529,0,0,0,0,0,-3.5272,-3.5361,-3.532,-3.5324,-3.5323,-3.5352,-3.5351,-3.5289,-3.5228,-3.5268,-3.5234,-3.5167,-3.5236,-3.5182,-3.5187,-3.5254,-3.5325,-3.5336,-3.5347,-3.5478,-3.5505,-3.5528,0,0,0,0,0,0,-3.5412,-3.5354,-3.5308,-3.5386,-3.5375,-3.5329,-3.5377,-3.532,-3.5326,-3.5314,-3.5237,-3.5231,-3.5302,-3.5283,-3.5224,-3.5357,-3.5269,-3.5282,-3.5367,-3.5392,-3.5413,-3.5417,-3.5108,0,0,0,0,0,-3.5452,-3.5479,-3.5427,-3.5501,-3.5498,-3.5439,-3.5449,-3.5402,-3.5388,-3.5383,-3.5352,-3.5342,-3.5361,-3.5376,-3.539,-3.5483,-3.5475,-3.5532,-3.5553,-3.5571,-3.5583,-3.5633,-3.5658,-3.5388,-3.5388,-3.5388,0,0,-3.5535,-3.5507,-3.5529,-3.5529,-3.5514,-3.5546,-3.5436,-3.5473,-3.5496,-3.5388,-3.5443,-3.5421,-3.5404,-3.5481,-3.5514,-3.5468,-3.5656,-3.5585,-3.5599,-3.5602,-3.5647,-3.5672,-3.5695,-3.5396,-3.5395,-3.5393,0,0,-3.5702,-3.5683,-3.5743,-3.5731,-3.5711,-3.5671,-3.5686,-3.5649,-3.563,-3.5683,-3.5604,-3.563,-3.5665,-3.5656,-3.5657,-3.5823,-3.5762,-3.583,-3.594,-3.5989,-3.601,-3.6029,-3.609,-3.6112,-3.5842,-3.5842,-3.5843,0,-3.5808,-3.5851,-3.5782,-3.5824,-3.5827,-3.5731,-3.5793,-3.5785,-3.5771,-3.5776,-3.5725,-3.5767,-3.5749,-3.5824,-3.5864,-3.5867,-3.5883,-3.5833,-3.6013,-3.6031,-3.6047,-3.6104,-3.6127,-3.5851,-3.585,-3.5849,-3.5848,0,-3.5983,-3.6014,-3.6065,-3.6054,-3.6063,-3.6115,-3.6055,-3.6072,-3.6025,-3.5992,-3.6048,-3.6023,-3.6032,-3.6046,-3.6,-3.6115,-3.6088,-3.6026,-3.5936,-3.6082,-3.6135,-3.6156,-3.5863,-3.586,-3.5857,-3.5855,0,0,-3.6237,-3.6187,-3.6208,-3.6202,-3.6173,-3.6196,-3.6245,-3.6252,-3.627,-3.6264,-3.6304,-3.6335,-3.6278,-3.6279,-3.6232,-3.6275,-3.6411,-3.6208,-3.6206,-3.6248,-3.6538,-3.6585,-3.6612,-3.637,-3.6373,-3.6377,-3.654,0,-3.6397,-3.6476,-3.6416,-3.6506,-3.6535,-3.6444,-3.6486,-3.6474,-3.6445,-3.6466,-3.6433,-3.6457,-3.6379,-3.638,-3.6418,-3.6386,-3.6468,-3.6373,-3.6408,-3.641,-3.6416,-3.6639,-3.6689,-3.6844,-3.656,-3.6563,-3.6565,0,-3.6594,-3.6597,-3.669,-3.6656,-3.6666,-3.6705,-3.6708,-3.6729,-3.6714,-3.6689,-3.6691,-3.6633,-3.6679,-3.6591,-3.6655,-3.6592,-3.6602,-3.6589,-3.6593,-3.6595,-3.6497,-3.6648,-3.6892,-3.6916,-3.6597,-3.6594,-3.6592,0,-3.6772,-3.6799,-3.6858,-3.6856,-3.6818,-3.6848,-3.6834,-3.6814,-3.6823,-3.6826,-3.6832,-3.6841,-3.6846,-3.6855,-3.6802,-3.6742,-3.6874,-3.678,-3.6856,-3.6858,-3.6889,-3.6888,-3.7139,-3.6894,-3.6894,-3.6893,-3.6893,0,-3.6957,-3.7018,-3.6938,-3.6975,-3.7041,-3.6972,-3.704,-3.7016,-3.7,-3.7031,-3.6954,-3.6985,-3.6912,-3.6937,-3.6895,-3.6956,-3.6958,-3.6941,-3.693,-3.6949,-3.6952,-3.6956,-3.6944,-3.6899,-3.6898,-3.6897,-3.6896,0,-3.7168,-3.7116,-3.7175,-3.7134,-3.7126,-3.7177,-3.7142,-3.7175,-3.7141,-3.7182,-3.7188,-3.7134,-3.7159,-3.7106,-3.7124,-3.7096,-3.7183,-3.7154,-3.7188,-3.718,-3.726,-3.7254,-3.7523,-3.7556,-3.7289,-3.7292,-3.7294,0,-3.729,-3.7335,-3.7299,-3.7314,-3.7304,-3.733,-3.7339,-3.7273,-3.7286,-3.7273,-3.7309,-3.7327,-3.7338,-3.7383,-3.7347,-3.7361,-3.7332,-3.7426,-3.7334,-3.7352,-3.7335,-3.7334,-3.7339,-3.7445,-3.7448,-3.7451,-3.7453,0,-3.7513,-3.7486,-3.7501,-3.7509,-3.7521,-3.7524,-3.7521,-3.7539,-3.7469,-3.7488,-3.7512,-3.7521,-3.7539,-3.756,-3.7565,-3.7552,-3.7492,-3.7482,-3.7501,-3.7522,-3.754,-3.7533,-3.7241,-3.7477,-3.7474,-3.7473,-3.7471,-3.747,-3.7684,-3.772,-3.7701,-3.7721,-3.7712,-3.7712,-3.7742,-3.7711,-3.773,-3.7739,-3.77,-3.7734,-3.7719,-3.772,-3.7713,-3.774,-3.7698,-3.7725,-3.7732,-3.774,-3.7753,-3.7535,-3.7741,-3.774,-3.7739,-3.7738,-3.7738,0,-3.7904,-3.7888,-3.7907,-3.7906,-3.7923,-3.7864,-3.7858,-3.7876,-3.7907,-3.7898,-3.7911,-3.794,-3.796,-3.7925,-3.7939,-3.7968,-3.7941,-3.7974,-3.7972,-3.797,-3.7789,-3.7772,-3.7995,-3.7995,-3.7995,-3.7995,-3.7995,-3.7995,-3.8021,-3.808,-3.8051,-3.8105,-3.8087,-3.812,-3.8122,-3.8122,-3.8114,-3.8151,-3.8166,-3.8143,-3.8124,-3.8137,-3.8153,-3.8142,-3.8152,-3.8195,-3.8176,-3.8008,-3.7982,-3.7958,-3.7942,-3.8197,-3.8198,-3.8354,-3.8355,-3.8356]},{"header":{"parameterUnit":"m.s-1","parameterCategory":1,"la1":30.2991,"la2":30.254,"lo1":-89.0895,"lo2":-89.0444,"dy":0.0017,"dx":0.0017,"nx":28,"ny":28,"refTime":"2025-09-02T21:00:00:Z","depth":0,"parameterNumber":3,"parameterNumberName":"V-component_of_WINDS"},"data":[0,0,0,0,0,0,0,0,0,0,0,0,0,0,0,0,0,0,0,0,0,0,0,0,0,0,0,0,0,0,0,0,0,0,0,0,0,0,0,0,0,0,0,0,0,0,0,0,0,0,0,0,0,0,0,0,0,0,0.7023,0.7024,0,0.7069,0.7069,0.707,0.7163,0.7165,0.7167,0.7168,0.7211,0.721,0.721,0,0,0,0,0,0,0,0,0,0,0,0,0,0.7013,0.7012,0.7023,0.7024,0.7024,0.7069,0.7069,0.707,0.7162,0.7165,0.7167,0.7169,0.7211,0.721,0.721,0,0,0,0,0,0,0,0,0,0,0,0,0,0.7033,0.7012,0.7023,0.7076,0.7081,0.7069,0.7069,0.707,0.7162,0.7165,0.7168,0.717,0.7211,0.721,0.721,0.7148,0,0,0.7207,0.7206,0,0,0,0,0,0,0,0,0.7032,0.7034,0.7068,0.7072,0.7078,0.7113,0.7082,0.7096,0.7161,0.7131,0.7168,0.7172,0.7176,0.7178,0.718,0.715,0.7152,0.7207,0.7206,0.7206,0.7205,0,0,0,0,0,0,0,0.7031,0.7032,0.7041,0.7068,0.7074,0.7096,0.7102,0.7085,0.7137,0.7134,0.7141,0.7145,0.7179,0.7181,0.7182,0.7153,0.7207,0.7206,0.7205,0.7205,0.7073,0.707,0,0,0,0,0,0,0.7022,0.703,0.704,0.7043,0.7062,0.7094,0.7101,0.7099,0.7138,0.7146,0.7143,0.7149,0.7181,0.7183,0.7184,0.7113,0.7206,0.7205,0.7204,0.7076,0.7072,0.7069,0,0,0,0,0,0,0.7021,0.7022,0.7038,0.7038,0.7042,0.7091,0.7088,0.7098,0.71,0.7144,0.7154,0.7135,0.7183,0.7185,0.7156,0.7115,0.7204,0.7204,0.708,0.7075,0.7071,0.6971,0,0,0,0,0,0,0.7021,0.7021,0.6999,0.7037,0.7042,0.701,0.7086,0.7097,0.7099,0.7108,0.714,0.7147,0.7186,0.7157,0.7155,0.7116,0.7203,0.7083,0.7078,0.7072,0.6978,0.6963,0.6951,0,0,0,0,0,0.702,0.6968,0.6997,0.6998,0.7015,0.7008,0.701,0.7056,0.7095,0.7073,0.7101,0.7146,0.7121,0.7153,0.7152,0.7112,0.7086,0.7079,0.7073,0.6984,0.6966,0.6951,0,0,0,0,0,0,0.6922,0.6974,0.7007,0.6966,0.6982,0.7023,0.6996,0.7036,0.704,0.7048,0.7105,0.7111,0.7074,0.7091,0.7126,0.7054,0.7111,0.7104,0.7044,0.7027,0.7014,0.7009,0.7202,0,0,0,0,0,0.6896,0.6886,0.6933,0.6892,0.6898,0.6946,0.6944,0.6979,0.6997,0.7003,0.703,0.7044,0.704,0.7035,0.7034,0.6982,0.6989,0.6954,0.6941,0.6929,0.6921,0.6893,0.6878,0.7047,0.7047,0.7048,0,0,0.6841,0.6869,0.6859,0.6873,0.6889,0.6877,0.695,0.6934,0.6925,0.7001,0.6974,0.6995,0.7015,0.6974,0.6957,0.6986,0.6877,0.6921,0.6912,0.6909,0.6885,0.6869,0.6854,0.7043,0.7044,0.7044,0,0,0.6734,0.6755,0.6723,0.6738,0.6763,0.6795,0.6787,0.6823,0.6839,0.6815,0.6871,0.6861,0.6852,0.6864,0.6868,0.6768,0.6808,0.6766,0.6694,0.6667,0.6653,0.6641,0.6603,0.6588,0.6758,0.6758,0.6758,0,0.6662,0.6647,0.6701,0.6681,0.6685,0.6755,0.6722,0.6734,0.6756,0.6756,0.679,0.678,0.6799,0.6761,0.6736,0.6739,0.673,0.676,0.6651,0.664,0.663,0.6593,0.6579,0.6753,0.6753,0.6754,0.6754,0,0.6556,0.6544,0.6516,0.6536,0.6537,0.6511,0.656,0.6554,0.659,0.6618,0.6591,0.6617,0.6621,0.6615,0.6649,0.6582,0.6599,0.6641,0.6699,0.6607,0.6573,0.656,0.6744,0.6746,0.6748,0.675,0,0,0.6384,0.6437,0.6425,0.6435,0.6468,0.6459,0.6437,0.6442,0.6435,0.6449,0.6429,0.6421,0.646,0.6466,0.6502,0.6478,0.6393,0.6523,0.6524,0.6495,0.6318,0.6283,0.6266,0.6423,0.6421,0.6419,0.6315,0,0.6282,0.6246,0.6295,0.6247,0.6236,0.6304,0.6283,0.6301,0.6327,0.6321,0.635,0.6342,0.6396,0.64,0.638,0.6408,0.6358,0.6417,0.6402,0.6401,0.6391,0.6249,0.6213,0.6113,0.6303,0.6301,0.6299,0,0.6157,0.6165,0.6116,0.6153,0.615,0.6131,0.6139,0.6134,0.6155,0.6176,0.6182,0.6226,0.6205,0.6264,0.6234,0.6272,0.627,0.6283,0.6281,0.6278,0.6341,0.6239,0.6083,0.6067,0.628,0.6281,0.6283,0,0.6032,0.6032,0.6003,0.601,0.6052,0.6036,0.6053,0.6077,0.6077,0.6085,0.6085,0.609,0.6092,0.6094,0.6138,0.6177,0.6101,0.6165,0.6116,0.6114,0.6093,0.6093,0.5931,0.6098,0.6098,0.6098,0.6098,0,0.591,0.5877,0.5947,0.5928,0.5893,0.595,0.5913,0.5937,0.5958,0.5944,0.6004,0.5989,0.605,0.6042,0.6076,0.6044,0.6046,0.606,0.6069,0.6052,0.605,0.6048,0.6055,0.6094,0.6095,0.6096,0.6097,0,0.5764,0.581,0.5782,0.5825,0.5835,0.5806,0.5843,0.5827,0.5859,0.584,0.5839,0.5888,0.5881,0.5926,0.5928,0.5951,0.5901,0.5924,0.5894,0.5899,0.5846,0.5849,0.5674,0.5653,0.5837,0.5835,0.5833,0,0.5681,0.5657,0.5698,0.5694,0.5708,0.57,0.5701,0.5757,0.5755,0.5778,0.5758,0.5757,0.5759,0.5745,0.5779,0.578,0.5801,0.574,0.5801,0.5785,0.5796,0.5795,0.5792,0.5725,0.5723,0.5721,0.572,0,0.5527,0.5552,0.5552,0.5559,0.5559,0.5567,0.558,0.5572,0.5633,0.5628,0.5623,0.5624,0.5626,0.5623,0.5632,0.5648,0.5692,0.5701,0.5689,0.567,0.5652,0.5658,0.5854,0.5703,0.5705,0.5706,0.5707,0.5708,0.5408,0.5389,0.5415,0.5413,0.5429,0.5439,0.5425,0.5456,0.5453,0.546,0.5494,0.5482,0.5504,0.552,0.5532,0.5522,0.5551,0.5535,0.553,0.5524,0.5513,0.5657,0.5525,0.5525,0.5526,0.5526,0.5527,0,0.5255,0.5276,0.5273,0.5289,0.5287,0.5333,0.5349,0.5343,0.5332,0.535,0.5351,0.5344,0.5342,0.5378,0.5379,0.5365,0.5385,0.5363,0.5362,0.5365,0.5489,0.5497,0.5346,0.5346,0.5346,0.5346,0.5346,0.5347,0.5175,0.5145,0.5173,0.5151,0.5173,0.5162,0.5167,0.5176,0.5191,0.5181,0.518,0.5204,0.5228,0.5233,0.5232,0.5243,0.5239,0.5209,0.5225,0.5339,0.5357,0.5373,0.5381,0.5209,0.5208,0.5103,0.5102,0.5101]}]]